Location: Degersen
(52.2871°N, 9.5716°E)
Time: 23:51:41
(UTC+00:00)

Cosmos 1862 Rocket - Pass Details

Date: 20 January 2026
Orbit: 596 x 627 km, 82.5° (Epoch: 9 February)

Event Time Altitude Azimuth Distance (km) Brightness Sun altitude
Exits shadow 04:53:52 17° 352° (N) 1,555 5.5 -21.6°
Maximum altitude 04:57:11 80° 79° (E) 618 3.5 -21.1°
Drops below altitude 10° 05:01:28 10° 166° (SSE) 1,936 6.3 -20.5°
Sets 05:03:39 0° 168° (SSE) 2,831 7.2 -20.2°
